Location: ?
(35.4064°N, 139.3593°E)
Time: 17:52:59
(UTC+00:00)

Hubble Space Telescope - Pass Details

Date: 09 December 2025
Orbit: 479 x 482 km, 28.5° (Epoch: 12 January)

Event Time Altitude Azimuth Distance (km) Brightness Sun altitude
Rises 08:06:09 0° 211° (SSW) 2,521 5.2 -7.5°
Reaches altitude 10° 08:10:13 10° 168° (SSE) 1,644 3.4 -8.3°
Maximum altitude 08:10:51 10° 158° (SSE) 1,623 3.2 -8.4°
Drops below altitude 10° 08:11:29 10° 149° (SSE) 1,644 3.2 -8.5°
Enters shadow 08:14:23 - 114° (ESE) 2,185 3.5 -9.1°
